Location: ??
(35.5052°N, 139.7262°E)
Time: 01:56:29
(UTC+00:00)

COSMOS 2428 - Pass Details

Date: 20 June 2021
Orbit: 845 x 858 km, 70.9° (Epoch: 26 July)

Event Time Altitude Azimuth Distance (km) Brightness Sun altitude
Exits shadow 12:39:38 19° 221° (SW) 1,923 4.4 -24.2°
Maximum altitude 12:43:40 57° 294° (WNW) 1,005 3.2 -24.7°
Drops below altitude 10° 12:49:19 10° 13° (NNE) 2,497 5.7 -25.2°
Sets 12:51:51 0° 17° (NNE) 3,437 6.5 -25.5°
